Massena, NY

5:12 PM EST on December 08, 2019 (GMT -0500)
Massena International-Richards

Weather History for KMSS - October, 2019

Change the Weather History Date:

Tuesday, October 1, 2019

  Actual Average Record
Temperature  
Mean Temperature 58 °F 52 °F  
Max Temperature 69 °F 63 °F 80 °F (1971)
Min Temperature 50 °F 42 °F 26 °F (1963)
Degree Days  
Heating Degree Days 7 13  
Month to date heating degree days 13  
Since 1 July heating degree days 313  
Cooling Degree Days 0 0  
Month to date cooling degree days 0  
Year to date cooling degree days 361  
Growing Degree Days 8 (Base 50)    
Moisture  
Dew Point 56 °F    
Average Humidity 92    
Maximum Humidity 96    
Minimum Humidity 86    
Precipitation  
Precipitation 0.76 in 0.11 in 1.30 in (1977)
Month to date precipitation 0.11  
Year to date precipitation 26.30  
Sea Level Pressure  
Sea Level Pressure 29.88 in    
Wind  
Wind Speed 5 mph (ENE)    
Max Wind Speed 12 mph    
Max Gust Speed -    
Visibility 6 miles    
Events Fog , Rain , Thunderstorm    
T = Trace of Precipitation, MM = Missing Value Source: NWS Daily Summary

Daily Weather History Graph

Daily Weather History Graph

Search for Another Location

Airport or City:

Astronomy

Oct. 01, 2019 Rise Set
Actual Time 6:57 AM EDT 6:40 PM EDT
Civil Twilight 6:27 AM EDT 7:09 PM EDT
Nautical Twilight 5:53 AM EDT 7:43 PM EDT
Astronomical Twilight 5:19 AM EDT 8:17 PM EDT
Moon 10:17 AM EDT (10/1) 8:43 PM EDT (10/1)
Length of Visible Light 12h 41m
Length of Day
11h 43m
Waxing Crescent, 12% of the Moon is Illuminated
Oct 1
Waxing Crescent
Oct 5
First Quarter
Oct 13
Full
Oct 21
Last Quarter
Oct 27
New

Hourly Weather History & Observations

Time (EDT) Temp. Dew Point Humidity Pressure Visibility Wind Dir Wind Speed Gust Speed Precip Events Conditions
12:18 AM 52.0 °F 48.9 °F 89% 30.08 in 9.0 mi NE 5.8 mph - 0.01 in Rain Light Rain
12:45 AM 52.0 °F 50.0 °F 93% 30.09 in 5.0 mi NNE 5.8 mph - 0.06 in Rain Rain
12:53 AM 52.0 °F 50.0 °F 93% 30.10 in 5.0 mi NE 8.1 mph - 0.08 in Rain Rain
1:23 AM 52.0 °F 50.0 °F 93% 30.08 in 4.0 mi ENE 6.9 mph - 0.04 in Rain Light Rain
1:53 AM 51.1 °F 48.9 °F 92% 30.08 in 4.0 mi ENE 9.2 mph - 0.05 in Rain Light Rain
2:22 AM 51.1 °F 48.0 °F 89% 30.07 in 5.0 mi ENE 6.9 mph - 0.00 in   Overcast
2:40 AM 51.1 °F 48.9 °F 92% 30.07 in 3.0 mi NE 8.1 mph - 0.01 in   Overcast
2:53 AM 51.1 °F 48.0 °F 89% 30.08 in 3.0 mi ENE 8.1 mph - 0.01 in Rain Light Rain
3:07 AM 51.1 °F 48.0 °F 89% 30.07 in 3.0 mi East 9.2 mph - 0.00 in Rain Light Rain
3:53 AM 50.0 °F 48.0 °F 93% 30.05 in 5.0 mi ENE 6.9 mph - 0.00 in   Overcast
4:15 AM 50.0 °F 48.0 °F 93% 30.03 in 5.0 mi ENE 6.9 mph - N/A   Overcast
4:21 AM 50.0 °F 48.0 °F 93% 30.03 in 4.0 mi East 6.9 mph - N/A   Overcast
4:53 AM 50.0 °F 48.0 °F 93% 30.03 in 7.0 mi ENE 6.9 mph - N/A   Overcast
5:00 AM 50.0 °F 48.0 °F 93% 30.01 in 6.0 mi East 4.6 mph - N/A   Overcast
5:53 AM 50.0 °F 48.0 °F 93% 30.01 in 4.0 mi ENE 4.6 mph - N/A   Overcast
6:53 AM 50.0 °F 48.9 °F 96% 29.97 in 6.0 mi East 8.1 mph - 0.07 in Rain Rain
7:02 AM 50.0 °F 48.0 °F 93% 29.93 in 4.0 mi SE 9.2 mph - 0.04 in Rain Light Rain
7:53 AM 51.1 °F 48.9 °F 92% 29.98 in 10.0 mi NE 8.1 mph - 0.05 in   Overcast
8:53 AM 53.1 °F 51.1 °F 93% 29.96 in 7.0 mi East 4.6 mph - N/A   Overcast
9:43 AM 54.0 °F 52.0 °F 93% 29.93 in 8.0 mi South 3.5 mph - N/A   Overcast
9:53 AM 54.0 °F 52.0 °F 93% 29.94 in 9.0 mi Calm Calm - N/A   Overcast
10:53 AM 55.9 °F 53.1 °F 90% 29.92 in 10.0 mi Calm Calm - N/A   Overcast
11:27 AM 57.0 °F 54.0 °F 89% 29.90 in 10.0 mi Calm Calm - N/A   Overcast
11:53 AM 57.9 °F 55.0 °F 90% 29.88 in 10.0 mi East 4.6 mph - N/A   Overcast
12:53 PM 61.0 °F 57.0 °F 87% 29.86 in 10.0 mi Calm Calm - N/A   Overcast
1:06 PM 62.1 °F 57.9 °F 86% 29.85 in 10.0 mi NE 6.9 mph - N/A   Overcast
1:55 PM 60.1 °F 57.9 °F 93% 29.84 in 0.8 mi Calm Calm - 0.12 in Rain , Thunderstorm Heavy Thunderstorms and Rain
2:02 PM 60.1 °F 57.9 °F 93% 29.80 in 0.2 mi SE 11.5 mph - 0.38 in Fog , Rain , Thunderstorm Heavy Thunderstorms and Rain
2:08 PM 60.1 °F 59.0 °F 96% 29.82 in 1.2 mi North 9.2 mph - 0.39 in Rain , Thunderstorm Light Thunderstorms and Rain
2:10 PM 60.1 °F 59.0 °F 96% 29.82 in 3.0 mi North 11.5 mph - 0.39 in Rain , Thunderstorm Light Thunderstorms and Rain
2:33 PM 61.0 °F 59.0 °F 93% 29.80 in 10.0 mi Calm Calm - 0.39 in Thunderstorm Mostly Cloudy
2:45 PM 62.1 °F 59.0 °F 90% 29.80 in 10.0 mi Calm Calm - 0.39 in   Overcast
2:53 PM 63.0 °F 60.1 °F 90% 29.80 in 10.0 mi Calm Calm - 0.39 in   Overcast
3:06 PM 63.0 °F 61.0 °F 93% 29.79 in 10.0 mi Calm Calm - 0.00 in Rain Light Rain
3:29 PM 64.0 °F 61.0 °F 90% 29.78 in 10.0 mi SSE 5.8 mph - 0.00 in   Mostly Cloudy
3:53 PM 64.9 °F 62.1 °F 90% 29.77 in 10.0 mi Calm Calm - 0.00 in   Mostly Cloudy
4:53 PM 66.0 °F 64.0 °F 93% 29.76 in 10.0 mi Calm Calm - 0.00 in   Overcast
5:13 PM 66.9 °F 64.0 °F 90% 29.76 in 1.8 mi Calm Calm - 0.06 in Rain Heavy Rain
5:22 PM 66.9 °F 64.0 °F 90% 29.76 in 3.0 mi North 4.6 mph - 0.06 in Rain Light Rain
5:53 PM 66.0 °F 63.0 °F 90% 29.76 in 8.0 mi NE 5.8 mph - 0.06 in   Overcast
6:21 PM 64.9 °F 62.1 °F 90% 29.75 in 6.0 mi NE 6.9 mph - N/A Thunderstorm Overcast
6:30 PM 64.0 °F 62.1 °F 93% 29.75 in 7.0 mi ENE 3.5 mph - N/A   Overcast
6:43 PM 64.0 °F 62.1 °F 93% 29.75 in 6.0 mi ENE 4.6 mph - N/A   Overcast
6:53 PM 63.0 °F 61.0 °F 93% 29.75 in 6.0 mi ENE 3.5 mph - N/A   Overcast
7:28 PM 63.0 °F 61.0 °F 93% 29.75 in 6.0 mi NE 3.5 mph - N/A   Overcast
7:53 PM 62.1 °F 60.1 °F 93% 29.75 in 6.0 mi NE 4.6 mph - N/A   Overcast
8:53 PM 63.0 °F 60.1 °F 90% 29.76 in 5.0 mi Calm Calm - 0.01 in   Mostly Cloudy
9:53 PM 63.0 °F 61.0 °F 93% 29.77 in 5.0 mi Calm Calm - 0.01 in Rain Light Rain
10:13 PM 64.9 °F 62.1 °F 90% 29.77 in 7.0 mi NNW 10.4 mph - 0.02 in Rain Light Rain
10:39 PM 66.0 °F 63.0 °F 90% 29.76 in 7.0 mi WSW 4.6 mph - 0.02 in Rain Light Rain
10:47 PM 66.2 °F 64.4 °F 94% 29.77 in 8.0 mi WSW 5.8 mph - 0.02 in   Overcast
10:53 PM 66.0 °F 64.0 °F 93% 29.78 in 8.0 mi WNW 4.6 mph - 0.02 in   Overcast
11:13 PM 66.9 °F 64.9 °F 93% 29.77 in 9.0 mi Calm Calm - 0.00 in Rain Light Rain
11:53 PM 68.0 °F 64.9 °F 90% 29.76 in 10.0 mi NW 6.9 mph - 0.01 in   Overcast